Location: Greenwich
(51.4790°N, 0.0090°E)
Time: 06:24:57
(UTC+01:00)

Tiros 1 - Pass Details

Date: 30 April 2024
Orbit: 624 x 657 km, 48.4° (Epoch: 25 May)

Event Time Altitude Azimuth Distance (km) Brightness Sun altitude
Rises 23:59:45 0° 261° (W) 2,947 10.6 -22.5°
Reaches altitude 10° 00:02:06 10° 257° (WSW) 2,032 9.7 -22.6°
Enters shadow 00:05:08 38° 240° (WSW) 978 7.9 -22.7°
